Brunswick, NC

11:55 PM EST on February 08, 2016 (GMT -0500)
Columbus County Municipal

Weather History for KCPC - March, 2014

Change the Weather History Date:

Sunday, March 2, 2014

  Actual Average (KLBT) Record (KLBT)
Temperature  
Mean Temperature 54 °F 50 °F  
Max Temperature 72 °F 62 °F 77 °F (2004)
Min Temperature 37 °F 39 °F 27 °F (2005)
Degree Days  
Heating Degree Days 10 15  
Month to date heating degree days 30  
Since 1 July heating degree days 2260  
Cooling Degree Days 0 0  
Month to date cooling degree days 0  
Year to date cooling degree days 3  
Growing Degree Days 4 (Base 50)    
Moisture  
Dew Point 41 °F    
Average Humidity 64    
Maximum Humidity 96    
Minimum Humidity 35    
Precipitation  
Precipitation 0.00 in 0.12 in 0.94 in (2002)
Month to date precipitation 0.23  
Year to date precipitation 6.10  
Sea Level Pressure  
Sea Level Pressure 30.13 in    
Wind  
Wind Speed 2 mph (SSW)    
Max Wind Speed 15 mph    
Max Gust Speed 20 mph    
Visibility 9 miles    
Events      
T = Trace of Precipitation, MM = Missing Value Source: NWS Daily Summary

Daily Weather History Graph

Daily Weather History Graph

Search for Another Location

Airport or City:

Trip Planner

Search our weather history database for the weather conditions in past years. The results will help you decide how hot, cold, wet, or windy it might be!

Date:

Astronomy

Mar. 02, 2014 Rise Set
Actual Time 6:42 AM EST 6:11 PM EST
Civil Twilight 6:17 AM EST 6:37 PM EST
Nautical Twilight 5:48 AM EST 7:06 PM EST
Astronomical Twilight 5:19 AM EST 7:35 PM EST
Moon 7:17 AM EST (3/2) 7:59 PM EST (3/2)
Length of Visible Light 12h 19m
Length of Day
11h 29m
Waxing Crescent, 3% of the Moon is Illuminated
Mar 2
Waxing Crescent
Mar 8
First Quarter
Mar 16
Full
Mar 23
Last Quarter
Mar 30
New

Hourly Weather History & Observations

Time (EST) Temp. Dew Point Humidity Pressure Visibility Wind Dir Wind Speed Gust Speed Precip Events Conditions
12:15 AM 43.0 °F 40.5 °F 91% 30.23 in 7.0 mi Calm Calm - N/A   Mostly Cloudy
12:35 AM 43.5 °F 40.8 °F 90% 30.23 in 7.0 mi Calm Calm - N/A   Mostly Cloudy
12:55 AM 43.3 °F 40.5 °F 90% 30.23 in 10.0 mi Calm Calm - N/A   Overcast
1:15 AM 43.9 °F 41.2 °F 90% 30.24 in 5.0 mi Calm Calm - N/A   Overcast
1:35 AM 43.7 °F 41.0 °F 90% 30.24 in 5.0 mi Calm Calm - N/A   Mostly Cloudy
1:55 AM 44.1 °F 41.2 °F 90% 30.23 in 7.0 mi Calm Calm - N/A   Overcast
2:15 AM 44.6 °F 41.7 °F 90% 30.23 in 7.0 mi Calm Calm - N/A   Overcast
2:35 AM 45.0 °F 42.1 °F 90% 30.21 in 10.0 mi Calm Calm - N/A   Overcast
2:55 AM 45.0 °F 42.1 °F 90% 30.21 in 7.0 mi Calm Calm - N/A   Overcast
3:15 AM 44.2 °F 41.9 °F 91% 30.21 in 7.0 mi Calm Calm - N/A   Mostly Cloudy
3:35 AM 44.4 °F 42.1 °F 91% 30.21 in 7.0 mi Calm Calm - N/A   Mostly Cloudy
3:55 AM 44.4 °F 41.9 °F 91% 30.20 in 7.0 mi Calm Calm - N/A   Overcast
4:15 AM 43.3 °F 41.5 °F 93% 30.20 in 7.0 mi Calm Calm - N/A   Scattered Clouds
4:35 AM 42.6 °F 41.0 °F 94% 30.21 in 5.0 mi Calm Calm - N/A   Clear
4:55 AM 42.1 °F 40.6 °F 95% 30.21 in 5.0 mi Calm Calm - N/A   Clear
5:15 AM 41.0 °F 39.6 °F 95% 30.21 in 5.0 mi Calm Calm - N/A   Clear
5:30 AM 40.5 °F 38.7 °F 93% 30.21 in 5.0 mi Calm Calm - N/A   Clear
5:55 AM 40.3 °F 38.5 °F 93% 30.21 in 5.0 mi Calm Calm - N/A   Clear
6:15 AM 39.7 °F 38.7 °F 96% 30.21 in 4.0 mi Calm Calm - N/A   Clear
6:35 AM 37.9 °F 36.3 °F 94% 30.20 in 4.0 mi Calm Calm - N/A   Clear
6:55 AM 38.7 °F 37.4 °F 95% 30.20 in 3.0 mi Calm Calm - N/A   Clear
7:15 AM 38.7 °F 37.6 °F 96% 30.21 in 3.0 mi Calm Calm - N/A   Clear
7:35 AM 40.3 °F 39.0 °F 95% 30.21 in 4.0 mi Calm Calm - N/A   Clear
7:55 AM 42.6 °F 40.3 °F 91% 30.22 in 5.0 mi Calm Calm - N/A   Clear
8:15 AM 45.5 °F 41.5 °F 86% 30.23 in 7.0 mi Calm Calm - N/A   Clear
8:35 AM 49.5 °F 43.3 °F 79% 30.23 in 10.0 mi Calm Calm - N/A   Clear
8:55 AM 53.2 °F 43.0 °F 68% 30.23 in 10.0 mi Calm Calm - N/A   Clear
9:15 AM 55.8 °F 41.0 °F 58% 30.22 in 10.0 mi Calm Calm - N/A   Clear
9:35 AM 57.6 °F 40.5 °F 53% 30.22 in 10.0 mi Calm Calm - N/A   Clear
9:55 AM 59.4 °F 39.6 °F 48% 30.22 in 10.0 mi WSW 4.6 mph - N/A   Clear
10:10 AM 60.6 °F 39.6 °F 46% 30.22 in 10.0 mi West 3.5 mph - N/A   Clear
10:35 AM 63.0 °F 38.8 °F 41% 30.21 in 10.0 mi SSW 3.5 mph - N/A   Clear
10:55 AM 64.0 °F 38.1 °F 38% 30.20 in 10.0 mi Calm Calm - N/A   Clear
11:15 AM 64.6 °F 37.6 °F 37% 30.19 in 10.0 mi SSE 4.6 mph - N/A   Clear
11:35 AM 65.3 °F 37.8 °F 36% 30.18 in 10.0 mi Calm Calm - N/A   Clear
11:55 AM 66.0 °F 39.7 °F 38% 30.16 in 10.0 mi Calm Calm - N/A   Clear
12:15 PM 66.6 °F 39.9 °F 38% 30.15 in 10.0 mi SW 5.8 mph - N/A   Clear
12:35 PM 67.3 °F 40.8 °F 38% 30.13 in 10.0 mi SW 3.5 mph - N/A   Clear
12:55 PM 68.0 °F 40.8 °F 37% 30.13 in 10.0 mi West 4.6 mph - N/A   Clear
1:15 PM 68.5 °F 41.0 °F 37% 30.12 in 10.0 mi WNW 3.5 mph - N/A   Clear
1:35 PM 69.8 °F 41.7 °F 36% 30.10 in 10.0 mi SW 5.8 mph - N/A   Clear
1:55 PM 70.0 °F 41.9 °F 36% 30.09 in 10.0 mi South 6.9 mph - N/A   Clear
2:15 PM 70.5 °F 42.4 °F 36% 30.08 in 10.0 mi South 8.1 mph - N/A   Clear
2:35 PM 71.2 °F 42.4 °F 35% 30.06 in 10.0 mi South 9.2 mph 17.3 mph N/A   Clear
2:55 PM 71.6 °F 42.6 °F 35% 30.06 in 10.0 mi SSW 15.0 mph 18.4 mph N/A   Clear
3:15 PM 72.0 °F 42.6 °F 35% 30.05 in 10.0 mi SSW 10.4 mph - N/A   Clear
3:35 PM 71.6 °F 42.4 °F 35% 30.04 in 10.0 mi SSW 5.8 mph 16.1 mph N/A   Clear
3:55 PM 71.6 °F 42.6 °F 35% 30.04 in 10.0 mi SW 11.5 mph 19.6 mph N/A   Clear
4:15 PM 71.6 °F 42.6 °F 35% 30.04 in 10.0 mi SW 12.7 mph - N/A   Clear
4:35 PM 71.6 °F 42.8 °F 35% 30.03 in 10.0 mi SW 10.4 mph - N/A   Clear
4:55 PM 70.9 °F 43.0 °F 37% 30.03 in 10.0 mi SSW 11.5 mph 16.1 mph N/A   Clear
5:15 PM 69.4 °F 44.2 °F 40% 30.03 in 10.0 mi South 10.4 mph - N/A   Clear
5:35 PM 67.3 °F 44.1 °F 43% 30.03 in 10.0 mi South 8.1 mph - N/A   Clear
5:55 PM 65.5 °F 43.9 °F 46% 30.03 in 10.0 mi South 6.9 mph - N/A   Clear
6:15 PM 63.7 °F 43.9 °F 48% 30.04 in 10.0 mi South 11.5 mph - N/A   Clear
6:35 PM 61.9 °F 43.9 °F 52% 30.03 in 10.0 mi South 9.2 mph - N/A   Clear
6:55 PM 60.4 °F 43.9 °F 54% 30.04 in 10.0 mi South 8.1 mph - N/A   Clear
7:15 PM 59.2 °F 43.5 °F 56% 30.04 in 10.0 mi South 6.9 mph - N/A   Clear
7:35 PM 58.3 °F 43.0 °F 57% 30.03 in 10.0 mi South 5.8 mph - N/A   Clear
7:55 PM 57.2 °F 42.8 °F 59% 30.03 in 10.0 mi South 5.8 mph - N/A   Clear
8:15 PM 56.5 °F 42.4 °F 59% 30.03 in 10.0 mi South 4.6 mph - N/A   Clear
8:35 PM 55.8 °F 42.4 °F 61% 30.03 in 10.0 mi South 4.6 mph - N/A   Clear
8:55 PM 55.2 °F 42.4 °F 62% 30.03 in 10.0 mi South 4.6 mph - N/A   Clear
9:15 PM 54.1 °F 42.4 °F 65% 30.03 in 10.0 mi South 4.6 mph - N/A   Clear
9:35 PM 53.6 °F 42.8 °F 67% 30.02 in 10.0 mi South 5.8 mph - N/A   Clear
9:55 PM 53.6 °F 42.8 °F 67% 30.01 in 10.0 mi South 6.9 mph - N/A   Clear
10:15 PM 51.8 °F 42.8 °F 71% 30.01 in 10.0 mi SSW 5.8 mph - N/A   Clear
10:35 PM 52.7 °F 42.8 °F 69% 30.00 in 10.0 mi SSW 6.9 mph - N/A   Scattered Clouds
10:55 PM 52.3 °F 42.8 °F 70% 30.00 in 10.0 mi SSW 5.8 mph - N/A   Scattered Clouds
11:15 PM 53.4 °F 42.6 °F 67% 29.99 in 10.0 mi SSW 6.9 mph - N/A   Clear
11:35 PM 54.0 °F 42.1 °F 64% 29.99 in 10.0 mi SSW 6.9 mph - N/A   Clear
11:55 PM 54.7 °F 41.7 °F 62% 29.98 in 10.0 mi SW 6.9 mph - N/A   Clear